Погода в Тюрмеровке

Россия / Владимирская область     55°55′36″N   41°07′21″E
темп.,
°C
ветер,
м/с
пор.,
м/с
влажн.,
%
обл.,
%
осадки,
мм/ч
давл.,
гПа
погр.,
м
16 мая, вс
вс1600:00+14ю3119658 0.0 1011318
03:00+12ю310971 0.0 1012265
06:00+13ююз310952 0.0 1013391
09:00+18ююз487251 0.0 1014720
12:00+22юз58505 0.0 10141812
15:00+23юз584225 0.0 10132615
18:00+20юз38620 0.0 1014491
21:00+15юз22870 0.0 101528
17 мая, пн
пн1700:00+13ююз229322 0.0 101532
03:00+12юз11947 0.0 101610
06:00+15ююв118426 0.0 101754
09:00+21юв236018 0.0 1017635
12:00+24вюв344560 0.0 10161279
15:00+26юв45465 0.0 10151338
18:00+24в48615 0.0 1014496
21:00+18юв37850 0.0 1014127
18 мая, вт
вт1800:00+15юв310822 0.0 1014163
03:00+14вюв39863 0.0 1014152
06:00+17юв412715 0.0 1013284
09:00+24юв512465 0.0 1013584
12:00+27юв610335 0.0 10121193
15:00+28юв5103359 0.0 10112884
18:00+25юв511485 0.0 1010889
21:00+21юв516620 0.0 1010668
19 мая, ср
ср1900:00+19юв518687 0.0 1009615
03:00+18юв5146071 0.0 1009569
06:00+17ююв41170100 0.0 1009411
09:00+21юв5106099 0.0 1009886
12:00+23ююв61751100 0.0 10092182
15:00+22ююв61956100 0.3 10092738
18:00+17ю3118797 1.5 1009756
21:00+14ю3109512 1.6 1010450
20 мая, чт
чт2000:00+13ююв2798100 0.0 1010154
03:00+13ю3993100 0.1 1011308
06:00+12ю4989100 0.5 1010384
09:00+13ююз4982100 0.6 1009777
12:00+17юз695295 0.3 10091852
15:00+13юз5107395 0.6 10111118
18:00+15юз511685 0.2 10131346
21:00+11юз39911 0.3 1016275